Location: Weatherford
(35.5260°N, 98.7070°W)
Time: 02:58:28
(UTC-05:00)

OPAL - Visible Passes

Search period start: 23 October 2014 00:00
Search period end: 02 November 2014 00:00
Orbit: 744 x 797 km, 100.2° (Epoch: 22 October)

Date Brightness Start Highest point End Pass type
(mag) Time Alt. Az. Time Alt. Az. Time Alt. Az.
23 Oct 10.2 04:41:15 10° E 04:44:16 16° ENE 04:47:17 10° NNE visible
23 Oct 7.5 06:17:34 10° S 06:22:39 58° WSW 06:27:42 10° NNW visible
23 Oct 10.2 20:10:37 10° NNW 20:13:50 18° WNW 20:17:03 10° WSW visible
24 Oct 7.9 05:42:22 10° SSE 05:47:27 62° ENE 05:52:30 10° N visible
24 Oct 9.0 19:34:20 10° N 19:38:55 39° WNW 19:43:28 10° SW visible
25 Oct 9.4 05:08:06 10° SE 05:12:26 28° ENE 05:16:43 10° N visible
25 Oct 8.3 06:46:38 10° SSW 06:51:10 31° W 06:55:40 10° NW visible
26 Oct 10.4 04:35:22 10° E 04:37:35 13° ENE 04:39:47 10° NE visible
26 Oct 7.4 06:10:42 10° S 06:15:50 72° WSW 06:20:57 10° NNW visible
26 Oct 9.9 20:03:25 10° NNW 20:07:07 22° WNW 20:10:48 10° WSW visible
27 Oct 8.3 05:35:44 10° SE 05:40:41 50° ENE 05:45:36 10° N visible
27 Oct 9.0 07:16:34 10° SW 07:19:46 17° W 07:22:57 10° WNW visible
27 Oct 8.5 19:27:23 10° N 19:32:08 48° WNW 19:36:52 10° SW visible
28 Oct 9.7 05:01:45 10° ESE 05:05:42 23° ENE 05:09:37 10° NNE visible
28 Oct 8.0 06:39:34 10° SSW 06:44:19 38° W 06:49:03 10° NNW visible
28 Oct 10.4 20:33:28 10° NW 20:35:12 12° WNW 20:36:56 10° W visible
29 Oct 10.6 04:30:22 10° ENE 04:30:54 10° ENE 04:31:26 10° NE visible
29 Oct 7.4 06:03:53 10° SSE 06:09:02 88° WSW 06:14:08 10° NNW visible
29 Oct 9.6 19:56:18 10° N 20:00:22 26° WNW 20:04:25 10° WSW visible
30 Oct 8.7 05:29:09 10° SE 05:33:55 41° ENE 05:38:38 10° N visible
30 Oct 8.7 07:09:08 10° SW 07:12:53 20° W 07:16:37 10° NW visible
30 Oct 8.1 19:20:28 10° N 19:25:20 60° WNW 19:30:11 10° SSW visible
31 Oct 9.9 04:55:30 10° ESE 04:58:58 19° ENE 05:02:25 10° NNE visible
31 Oct 7.7 06:32:33 10° S 06:37:28 47° WSW 06:42:21 10° NNW visible
31 Oct 10.3 20:25:50 10° NNW 20:28:30 15° WNW 20:31:09 10° W visible
01 Nov 7.6 05:57:07 10° SSE 06:02:14 76° ENE 06:07:17 10° NNW visible
01 Nov 9.2 19:49:14 10° N 19:53:36 32° WNW 19:57:57 10° SW visible
